This demonstration page uses our WeatherBlox Daily Observations layout. Learn more.

Left ArrowRight Arrow

Hourly Observations for March 1, 2019

Temp ( °F °C ) Dew Point ( °F °C ) Humidity (%) Winds ( mph kmh ) Pressure ( in mb ) Visibility ( mi km ) Precip ( " mm )
12:52 am 00:52 Mostly Cloudy 13 -10.6 5 -15 70 70 Calm 30.20 1023 10 16 0.00 0.00
1:52 am 01:52 Cloudy 10 -12.2 4 -15.6 76 76 Calm 30.19 1023 10 16 0.00 0.00
2:52 am 02:52 Cloudy 12 -11.1 7 -13.9 80 80 Calm 30.16 1022 10 16 0.00 0.00
3:52 am 03:52 Cloudy 11 -11.7 5 -15 77 77 Calm 30.17 1022 10 16 0.00 0.00
4:52 am 04:52 Cloudy 11 -11.7 6 -14.4 81 81 Calm 30.16 1021 9 14 0.00 0.00
5:52 am 05:52 Cloudy 16 -8.9 6 -14.4 65 65 Calm 30.16 1021 10 16 0.00 0.00
6:52 am 06:52 Mostly Cloudy 16 -8.9 7 -13.9 67 67 SSE 7 11 30.14 1021 10 16 0.00 0.00
7:52 am 07:52 Mostly Cloudy 16 -8.9 7 -13.9 67 67 SSE 8 13 30.16 1021 10 16 0.00 0.00
8:52 am 08:52 Cloudy 18 -7.8 7 -13.9 62 62 S 8 13 30.14 1021 10 16 0.00 0.00
9:52 am 09:52 Cloudy 21 -6.1 9 -12.8 59 59 SSE 9 15 30.13 1020 10 16 0.00 0.00
10:52 am 10:52 Cloudy 23 -5 10 -12.2 57 57 SSE 10 17 30.13 1020 10 16 0.00 0.00
11:52 am 11:52 Mostly Cloudy 26 -3.3 11 -11.7 53 53 SSE 3 6 30.14 1021 10 16 0.00 0.00
12:52 pm 12:52 Partly Cloudy 28 -2.2 13 -10.6 53 53 S 9 15 30.11 1020 10 16 0.00 0.00
1:52 pm 13:52 Mostly Sunny 30 -1.1 16 -8.9 56 56 S 14 22 30.09 1019 10 16 0.00 0.00
2:52 pm 14:52 Partly Cloudy 31 -0.6 18 -7.8 59 59 SW 9 15 30.10 1019 10 16 0.00 0.00
5:52 pm 17:52 Cloudy 29 -1.7 19 -7.2 66 66 NW 14 22 30.17 1022 10 16 0.00 0.00
6:52 pm 18:52 Mostly Cloudy 26 -3.3 16 -8.9 66 66 NW 18 30 30.22 1023 10 16 0.00 0.00
7:52 pm 19:52 Mostly Cloudy 23 -5 15 -9.4 72 72 NNW 18 30 30.25 1025 10 16 0.00 0.00
8:52 pm 20:52 Mostly Clear 21 -6.1 14 -10 74 74 NNW 16 26 30.28 1025 10 16 0.00 0.00
9:52 pm 21:52 Partly Cloudy 19 -7.2 11 -11.7 71 71 NNW 13 20 30.31 1026 10 16 0.00 0.00
10:52 pm 22:52 Mostly Clear 16 -8.9 10 -12.2 77 77 NNW 13 20 30.34 1027 10 16 0.00 0.00
11:52 pm 23:52 Mostly Clear 13 -10.6 8 -13.3 81 81 NNW 7 11 30.32 1027 10 16 0.00 0.00

Powered by AerisWeather